| time (UTC) | temp F | wind direction | speed knots | gust knots | rain 1hr in | rain 24hr in | rain mn in | humidity % | barometer mb |
| 20260506221549 | 60 | 99 | 0.9 | 9.6 | 0.00 | 0.00 | 0.00 | 84 | 1011.9 |
| 20260506220050 | 60 | 71 | 2.6 | 7.8 | 0.00 | 0.00 | 0.00 | 84 | 1012.0 |
| 20260506214600 | 59 | 92 | 1.7 | 9.6 | 0.00 | 0.00 | 0.00 | 84 | 1011.9 |
| 20260506213044 | 60 | 93 | 3.5 | 11.3 | 0.00 | 0.00 | 0.00 | 83 | 1012.0 |
| 20260506211542 | 60 | 93 | 0.9 | 8.7 | 0.00 | 0.00 | 0.00 | 84 | 1012.3 |
| 20260506210050 | 60 | 102 | 2.6 | 12.2 | 0.00 | 0.00 | 0.00 | 83 | 1012.2 |
| 20260506204551 | 60 | 79 | 2.6 | 10.4 | 0.00 | 0.00 | 0.00 | 83 | 1012.3 |
| 20260506203048 | 60 | 102 | 1.7 | 10.4 | 0.00 | 0.00 | 0.00 | 82 | 1012.4 |
| 20260506201548 | 60 | 126 | 4.3 | 13.0 | 0.00 | 0.00 | 0.00 | 82 | 1012.3 |
| 20260506200118 | 61 | 32 | 4.3 | 13.0 | 0.00 | 0.00 | 0.00 | 81 | 1012.2 |
| 20260506194544 | 62 | 86 | 1.7 | 10.4 | 0.00 | 0.00 | 0.00 | 81 | 1012.1 |
| 20260506193054 | 63 | 0 | 2.6 | 12.2 | 0.00 | 0.00 | 0.00 | 80 | 1012.1 |
| 20260506191604 | 64 | 88 | 2.6 | 11.3 | 0.00 | 0.00 | 0.00 | 80 | 1012.3 |
| 20260506190048 | 64 | 0 | 5.2 | 13.0 | 0.00 | 0.00 | 0.00 | 80 | 1012.3 |
| 20260506184549 | 66 | 54 | 2.6 | 12.2 | 0.00 | 0.00 | 0.00 | 79 | 1012.1 |
| 20260506183045 | 70 | 59 | 4.3 | 9.6 | 0.00 | 0.00 | 0.00 | 74 | 1012.0 |
| 20260506181556 | 72 | 0 | 0.9 | 11.3 | 0.00 | 0.00 | 0.00 | 74 | 1011.9 |
| 20260506180111 | 71 | 110 | 0.0 | 8.7 | 0.00 | 0.00 | 0.00 | 77 | 1011.7 |
| 20260506174546 | 69 | 0 | 0.0 | 5.2 | 0.00 | 0.00 | 0.00 | 78 | 1011.5 |
| 20260506173106 | 69 | 0 | 0.0 | 6.1 | 0.00 | 0.00 | 0.00 | 80 | 1011.2 |
| 20260506171547 | 66 | 139 | 0.0 | 7.8 | 0.00 | 0.00 | 0.00 | 82 | 1011.4 |
| 20260506170044 | 66 | 0 | 2.6 | 8.7 | 0.00 | 0.00 | 0.00 | 83 | 1011.2 |
| 20260506164542 | 65 | 136 | 1.7 | 7.8 | 0.00 | 0.00 | 0.00 | 87 | 1011.4 |
| 20260506163044 | 62 | 0 | 0.0 | 7.8 | 0.00 | 0.00 | 0.00 | 91 | 1011.9 |
| 20260506161554 | 60 | 90 | 0.0 | 9.6 | 0.00 | 0.00 | 0.00 | 92 | 1012.4 |
| 20260506160049 | 60 | 86 | 2.6 | 13.0 | 0.00 | 0.00 | 0.00 | 91 | 1012.8 |
| 20260506154549 | 60 | 99 | 3.5 | 13.9 | 0.00 | 0.00 | 0.00 | 91 | 1012.7 |
| 20260506153041 | 61 | 51 | 4.3 | 16.5 | 0.00 | 0.00 | 0.00 | 91 | 1012.7 |
| 20260506151548 | 62 | 96 | 6.1 | 14.8 | 0.00 | 0.00 | 0.00 | 90 | 1012.5 |
| 20260506150056 | 63 | 103 | 1.7 | 10.4 | 0.00 | 0.00 | 0.00 | 90 | 1011.7 |
| 20260506144601 | 64 | 126 | 4.3 | 11.3 | 0.00 | 0.00 | 0.00 | 89 | 1011.3 |
| 20260506143047 | 66 | 105 | 5.2 | 12.2 | 0.00 | 0.00 | 0.00 | 89 | 1010.9 |
| 20260506141545 | 68 | 78 | 1.7 | 7.8 | 0.00 | 0.00 | 0.00 | 89 | 1010.1 |
| 20260506140044 | 72 | 120 | 3.5 | 9.6 | 0.00 | 0.00 | 0.00 | 87 | 1010.0 |
| 20260506134549 | 74 | 0 | 0.0 | 0.0 | 0.00 | 0.00 | 0.00 | 92 | 1009.8 |
| 20260506133051 | 74 | 0 | 0.0 | 0.0 | 0.00 | 0.00 | 0.00 | 92 | 1009.6 |
| 20260506131549 | 74 | 0 | 0.0 | 0.0 | 0.00 | 0.00 | 0.00 | 92 | 1009.5 |
| 20260506130049 | 74 | 0 | 0.0 | 0.0 | 0.00 | 0.00 | 0.00 | 93 | 1009.1 |
| 20260506124544 | 73 | 0 | 0.0 | 0.0 | 0.00 | 0.00 | 0.00 | 93 | 1009.0 |
| 20260506123043 | 72 | 0 | 0.0 | 0.0 | 0.00 | 0.00 | 0.00 | 93 | 1008.9 |
| 20260506121548 | 72 | 0 | 0.0 | 0.0 | 0.00 | 0.00 | 0.00 | 92 | 1008.7 |
| 20260506120050 | 73 | 0 | 0.0 | 0.0 | 0.00 | 0.00 | 0.00 | 91 | 1008.7 |
| 20260506114547 | 73 | 0 | 0.0 | 5.2 | 0.00 | 0.00 | 0.00 | 91 | 1008.6 |
| 20260506113042 | 74 | 172 | 2.6 | 4.3 | 0.00 | 0.00 | 0.00 | 90 | 1008.7 |
| 20260506111543 | 74 | 0 | 0.9 | 4.3 | 0.00 | 0.00 | 0.00 | 90 | 1008.8 |
| 20260506110048 | 74 | 0 | 1.7 | 5.2 | 0.00 | 0.00 | 0.00 | 90 | 1008.7 |
| 20260506104546 | 74 | 0 | 1.7 | 4.3 | 0.00 | 0.00 | 0.00 | 90 | 1008.8 |
| 20260506103117 | 74 | 0 | 0.0 | 3.5 | 0.00 | 0.00 | 0.00 | 90 | 1008.7 |
| 20260506101545 | 74 | 0 | 0.0 | 6.1 | 0.00 | 0.00 | 0.00 | 89 | 1008.5 |
| 20260506100044 | 74 | 193 | 3.5 | 9.6 | 0.00 | 0.00 | 0.00 | 89 | 1008.2 |
| 20260506094542 | 74 | 195 | 3.5 | 7.0 | 0.00 | 0.00 | 0.00 | 89 | 1008.3 |
| 20260506093043 | 74 | 195 | 3.5 | 8.7 | 0.00 | 0.00 | 0.00 | 89 | 1007.9 |
| 20260506091543 | 74 | 0 | 3.5 | 7.0 | 0.00 | 0.00 | 0.00 | 89 | 1007.8 |
| 20260506090047 | 74 | 237 | 3.5 | 7.8 | 0.00 | 0.00 | 0.00 | 88 | 1007.7 |
| 20260506084550 | 74 | 210 | 4.3 | 10.4 | 0.00 | 0.00 | 0.00 | 88 | 1007.5 |
| 20260506083055 | 74 | 0 | 3.5 | 8.7 | 0.00 | 0.00 | 0.00 | 88 | 1007.7 |
| 20260506081540 | 74 | 208 | 4.3 | 8.7 | 0.00 | 0.00 | 0.00 | 88 | 1007.6 |
| 20260506073103 | 74 | 198 | 6.1 | 12.2 | 0.00 | 0.00 | 0.00 | 89 | 1007.8 |
| 20260506071548 | 74 | 221 | 6.1 | 14.8 | 0.00 | 0.00 | 0.00 | 89 | 1008.0 |
| 20260506061548 | 75 | 226 | 7.0 | 15.6 | 0.00 | 0.00 | 0.00 | 88 | 1007.8 |
| 20260506044551 | 75 | 198 | 5.2 | 8.7 | 0.00 | 0.00 | 0.00 | 88 | 1007.8 |
| 20260506043050 | 75 | 241 | 4.3 | 9.6 | 0.00 | 0.00 | 0.00 | 88 | 1007.8 |
| 20260506041554 | 75 | 174 | 1.7 | 6.1 | 0.00 | 0.00 | 0.00 | 88 | 1007.7 |
| 20260506040052 | 76 | 234 | 5.2 | 8.7 | 0.00 | 0.00 | 0.00 | 87 | 1007.5 |
| 20260506034549 | 76 | 166 | 3.5 | 7.8 | 0.00 | 0.00 | 0.00 | 86 | 1007.5 |
| 20260506033101 | 76 | 164 | 6.1 | 10.4 | 0.00 | 0.00 | 0.00 | 85 | 1007.0 |
| 20260506031547 | 77 | 186 | 4.3 | 10.4 | 0.00 | 0.00 | 0.00 | 84 | 1007.1 |
| 20260506030057 | 77 | 175 | 3.5 | 5.2 | 0.00 | 0.00 | 0.00 | 83 | 1006.7 |
| 20260506024547 | 77 | 174 | 3.5 | 7.8 | 0.00 | 0.00 | 0.00 | 83 | 1006.7 |
| 20260506023044 | 77 | 188 | 1.7 | 6.1 | 0.00 | 0.00 | 0.00 | 82 | 1006.5 |
| 20260506021557 | 78 | 179 | 2.6 | 5.2 | 0.00 | 0.00 | 0.00 | 81 | 1006.2 |
| 20260506020048 | 78 | 0 | 0.0 | 6.1 | 0.00 | 0.00 | 0.00 | 80 | 1006.0 |
| 20260506014547 | 79 | 206 | 1.7 | 6.1 | 0.00 | 0.00 | 0.00 | 79 | 1005.7 |
| 20260506013048 | 79 | 196 | 3.5 | 7.8 | 0.00 | 0.00 | 0.00 | 78 | 1005.6 |
| 20260506011607 | 79 | 220 | 3.5 | 8.7 | 0.00 | 0.00 | 0.00 | 76 | 1005.6 |
| 20260506010046 | 80 | 202 | 4.3 | 7.8 | 0.00 | 0.00 | 0.00 | 75 | 1005.5 |
| 20260506004546 | 81 | 236 | 3.5 | 9.6 | 0.00 | 0.00 | 0.00 | 74 | 1005.5 |
| 20260506003042 | 81 | 224 | 3.5 | 11.3 | 0.00 | 0.00 | 0.00 | 72 | 1005.6 |
| 20260506001547 | 81 | 216 | 3.5 | 12.2 | 0.00 | 0.00 | 0.00 | 72 | 1005.5 |
| 20260506000054 | 81 | 224 | 7.0 | 11.3 | 0.00 | 0.00 | 0.00 | 71 | 1005.6 |
| 20260505234544 | 82 | 220 | 5.2 | 10.4 | 0.00 | 0.00 | 0.00 | 71 | 1005.5 |
| 20260505233042 | 82 | 233 | 5.2 | 12.2 | 0.00 | 0.00 | 0.00 | 70 | 1005.3 |
| 20260505231543 | 82 | 186 | 6.1 | 12.2 | 0.00 | 0.00 | 0.00 | 69 | 1005.3 |
| 20260505230041 | 82 | 214 | 7.0 | 13.0 | 0.00 | 0.00 | 0.00 | 69 | 1005.2 |
| 20260505224543 | 83 | 238 | 6.1 | 11.3 | 0.00 | 0.00 | 0.00 | 68 | 1005.1 |
| 20260505223045 | 83 | 213 | 7.0 | 12.2 | 0.00 | 0.00 | 0.00 | 67 | 1005.1 |